Regional Weather Roundup
Issued by NWS Upton, NY

Current Version | Previous Version | Graphics & Text | Print | Product List | Glossary Off
Versions: 1 2 3 4 5 6 7 8 9 10 11 12 13 14 15 16 17 18 19 20 21 22 23 24 25 26 27

000
ASUS41 KOKX 191905
RWROKX

Regional Weather Roundup
National Weather Service New York NY
300 PM EDT THU APR 19 2018

Note: "FAIR" indicates few or no clouds below 12,000 feet with no
significant weather and/or obstructions to visibility.

NYZ071-072-176-178-NJZ106-104-192000-
New York City Metro Area

CITY           SKY/WX    TMP DP  RH WIND       PRES   REMARKS
Central Park   LGT RAIN  42  38  85 NW12      29.80R FOG
Bronx Bot Gard   N/A     41  36  81 N6        29.79
Bronx Lehman C   N/A     41  36  81 NW10        N/A
LaGuardia Arpt RAIN      43  37  79 NW15      29.77R
Queens College   N/A     43  37  81 NW9         N/A
Kennedy Intl   LGT RAIN  43  40  89 NW9       29.78R
Breezy Point     N/A     41 N/A N/A NW8         N/A
Brooklyn Coll    N/A     43  37  81 W15         N/A
Staten Island    N/A     41  36  81 NW13        N/A
Newark/Liberty LGT RAIN  43  38  82 NW20G26   29.79R
Teterboro      RAIN      42  36  79 N12G23    29.78R
$$

NYZ177-179-078>081-192000-
Long Island New York

CITY           SKY/WX    TMP DP  RH WIND       PRES   REMARKS
Jones Beach      N/A     41 N/A N/A NW9G15      N/A
Wantagh          N/A     43  39  87 NW8         N/A
Hempstead        N/A     43  39  87 NW2       29.80
Matinecock Pt    N/A     43 N/A N/A NW10        N/A
Farmingdale    LGT RAIN  42  39  89 NW9G17    29.77R
MacArthur/ISP  LGT RAIN  42  40  92 NW10      29.76R FOG
Stony Brook      N/A     41  39  93 NW6         N/A
Shirley        LGT RAIN  42  40  92 NW8       29.76R FOG
Mt Sinai Harb    N/A     41 N/A N/A W6          N/A
Westhampton    CLOUDY    42  38  85 NW8       29.75R
East Hampton   CLOUDY    41  38  90 NW7       29.72R
Southold         N/A     41  39  93 NW8         N/A
Montauk          N/A     43  41  93 NW6       29.73R
$$

NYZ052-065-067-192000-
Hudson Valley

CITY           SKY/WX    TMP DP  RH WIND       PRES   REMARKS
White Plains   LGT RAIN  40  36  86 NW9       29.75R WCI  34
Larchmont Harb   N/A     41 N/A N/A W14         N/A
Croton On Huds   N/A     41 N/A N/A SW14        N/A
Somers           N/A     39  36  87 NW3         N/A
Brewster         N/A     39  36  87 NW7         N/A  WCI  34
Newburgh       CLOUDY    41  39  93 VRB6      29.77R
Montgomery     CLOUDY    44  33  65 NW9       29.75R
Otisville        N/A     41  32  70 W10G23      N/A
Warwick          N/A     43  34  70 NW10        N/A
Suffern          N/A     39  34  81 NW12        N/A  WCI  32
Poughkeepsie   LGT RAIN  40  35  83 W5        29.77R
Albany         LGT RAIN  39  32  76 W16G29    29.77R WCI  30
$$

NJZ001-105-106-008-010-013-015-019>022-104-192000-
New Jersey

CITY           SKY/WX    TMP DP  RH WIND       PRES   REMARKS
Newark/Liberty LGT RAIN  43  38  82 NW20G26   29.79R
Teterboro      RAIN      42  36  79 N12G23    29.78R
Caldwell       CLOUDY    41  37  86 NW6       29.79R
Somerville     PTSUNNY   44  36  73 N10G18    29.77S
Linden         LGT RAIN  43  38  82 NW8       29.79R
Perth Amboy      N/A     41 N/A N/A NW13        N/A
Sussex         CLOUDY    43  33  68 VRB7      29.78R
Andover          N/A     41  35  79 VRB7      29.78R
Trenton        LGT RAIN  44  39  82 NW12      29.79R
Millville      LGT RAIN  49  41  74 W13G24    29.80R
Atlantic City  CLOUDY    51  45  79 NW12      29.78R
Wrightstown    LGT RAIN  45  39  81 N12       29.77
Toms River     LGT RAIN  47  42  83 W14       29.79R
Belmar         LGT RAIN  44  40  85 NW10      29.78S
$$

PAZ047>061-062-071-192000-
Eastern Pennsylvania

CITY           SKY/WX    TMP DP  RH WIND       PRES   REMARKS
Philadelphia   LGT RAIN  45  37  73 NW16G26   29.83
Allentown      CLOUDY    46  35  65 NW14      29.80F
Scranton       FLURRIES  37  35  92 N16       29.82R WCI  28
$$

CTZ002-004>006-009-010-012-RIZ004-006-007-MAZ004-011-015-192000-
Southern New England

 In CT

CITY           SKY/WX    TMP DP  RH WIND       PRES   REMARKS
Bradley Intl   LGT RAIN  44  34  67 W8        29.72R
Hartford       LGT RAIN  43  39  86 SW3       29.73R
Danbury        LGT RAIN  40  36  86 NW9       29.76R WCI  34
Wtrbury/Oxford LGT RAIN  39  36  89 NW8       29.74R WCI  33
Norwalk Harbor   N/A     39 N/A N/A W13         N/A  WCI  32
Bridgeport     LGT RAIN  43  38  82 NW9       29.75R
Meriden        LGT RAIN  41  37  86 NW5       29.74R
New Haven      LGT RAIN  43  38  82 NW6       29.74R FOG
Chester        CLOUDY    39  37  93 NW3       29.72R
Groton         LGT RAIN  44  40  85 NW10      29.71S
Willimantic    CLOUDY    41  37  86 W6        29.72R

 In RI

CITY           SKY/WX    TMP DP  RH WIND       PRES   REMARKS
Providence     LGT RAIN  42  40  92 W5        29.71R
Block Island   LGT RAIN  41  40  96 N6        29.71S
Westerly       LGT RAIN  44  41  89 NW8       29.71S

In MA

CITY           SKY/WX    TMP DP  RH WIND       PRES   REMARKS
Boston         LGT RAIN  42  35  76 W7        29.70
Worcester      LGT RAIN  38  33  82 SW7       29.68R WCI  33
Westfield      LGT RAIN  43  34  70 W16G24    29.72R
Provincetown   RAIN      38  36  92 N7        29.69F WCI  33
Nantucket      LGT RAIN  41  41 100 NE8       29.65F
$$

ANZ330-335-338-340-345-350-353-355-192000-
Coastal Marine Observations


STATION/POSITION TIME  SKY/WX   TEMP    WIND        PRES    VSBY  WAVE
                                AIR SEA DIR/SP/G                  HT/PER
                 (UTC)          (F)     (DEG/KT/KT) (MB)    (MI)  (FT/S)
NY Harb Entrance 1850            43 45  320/ 14/ 16 1008.2          2/ 8
20 S Fire Island 1850            43 42  300/  8/ 10 1007.8          2/ 9
23 SSW Montauk P 1850            41 42  320/  4/  6 1006.6          3/ 8
15 E Barnegat Li 1830               44                N/A           3/ 4
Hudson Canyon    1850            44 45   10/ 10/ 12 1005.9          4/ 8
Kings Point      1848            42 44  350/  9/ 11 1009.2
Execution Rocks  NOT AVBL
Western LI Sound NOT AVBL
Central LI Sound 1845            41     320/ 10/ 12   N/A           1
Robbins Reef     1848            43     310/ 18/ 22 1009.0
$$


>>>>>>>>>>>>>>>>>>>>>>>>>>>> KEY <<<<<<<<<<<<<<<<<<<<<<<<<<<
>                                                          <
>     SKY/WX - Sky Condition/Present Weather               <
>     TMP    - Temperature in Fahrenheit                   <
>     DP     - Dew Point in Fahrenheit                     <
>     RH     - Relative Humidity in Percent                <
>     WIND   - Direction (from) and Speed in MPH           <
>     PRES   - Mean Sea Level Pressure (inches of Hg)      <
>     WCI    - Wind Chill Index                            <
>     VSB    - Visibility in Miles                         <
>     HX     - Heat Index                                  <
>     TC     - Temperature in Celsius                      <
>     VRB    - Varibale Wind Direction                     <
>                                                          <
>>>>>>>>>>>>>>>>>>>>>>>>>>>> KEY <<<<<<<<<<<<<<<<<<<<<<<<<<<




USA.gov is the U.S. government's official web portal to all federal, state and local government web resources and services.